Weather Roundup
Issued by NWS Corpus Christi, TX

Home | Current Version | Previous Version | Text Only | Print | Product List | Glossary On
Versions: 1 2 3 4 5 6 7 8 9 10 11 12 13 14 15 16 17 18 19 20 21 22 23 24 25 26 27 28 29 30 31 32 33 34 35 36 37 38 39 40 41 42 43 44 45 46 47 48 49 50
000
ASUS44 KCRP 161710
HRRCRP

SOUTH TEXAS REGIONAL WEATHER ROUNDUP
NATIONAL WEATHER SERVICE CORPUS CHRISTI TX
1200 PM CDT WED AUG 16 2017


TXZ229>244-161800-
...CORPUS CHRISTI AREA OBSERVATIONS...

CITY           SKY/WX    TMP DP  RH WIND       PRES   REMARKS
CORPUS CHRISTI PTSUNNY   92  76  59 S18G28    29.94S HX 104
NAS CORPUS CHR PTSUNNY   93  77  59 S21G29    29.96R HX 107
ROCKPORT       LGT RAIN  91  76  61 S16G22    29.96R HX 103
KINGSVILLE NAS PTSUNNY   97  77  52 S18G24    29.93S HX 112
ALICE          MOSUNNY   93  72  50 S14G21    29.93S HX 101
FALFURRIAS     MOSUNNY   94  71  47 S13G22    29.93S HX 101
$$

...VICTORIA AREA OBSERVATIONS...

CITY           SKY/WX    TMP DP  RH WIND       PRES   REMARKS
VICTORIA       CLOUDY    93  76  57 S15       29.97R HX 105
BEEVILLE       PTSUNNY   95  74  49 S12G20    29.95S HX 105
PLEASANTON     MOSUNNY   92  69  46 S9        29.96S HX  97
SAN ANTONIO    CLOUDY    87  71  58 S10       29.98F HX  93
$$

...LAREDO AREA OBSERVATIONS...

CITY           SKY/WX    TMP DP  RH WIND       PRES   REMARKS
LAREDO         SUNNY     92  72  51 SE7       29.92F HX  99
COTULLA        MOSUNNY   92  69  47 SW9G17    29.93F HX  97
DEL RIO        PTSUNNY   87  74  64 SE9       29.92S HX  95
MCALLEN        MOSUNNY   97  73  45 SE16G29   29.93R HX 107
HEBBRONVILLE   SUNNY     90  69  48 S17       29.95S HX  94
$$

...OTHER TEXAS OBSERVATIONS...

CITY           SKY/WX    TMP DP  RH WIND       PRES   REMARKS
BROWNSVILLE    PTSUNNY   91  77  63 S18       29.94S HX 104
HOUSTON        MOSUNNY   91  75  59 S10       29.99S HX 101
COL. STATION   MOSUNNY   92  73  53 S16       29.98S HX 100
AUSTIN         PTSUNNY   92  73  53 S15G24    29.97R HX 100
WACO           CLOUDY    91  72  53 S20       29.95S HX  98
FORT WORTH     PTSUNNY   91  74  57 S17       29.93R HX 100
WICHITA FALLS  CLOUDY    84  72  67 S17       29.90S
LUBBOCK        MOSUNNY   84  68  58 N8        30.00R
EL PASO        MOSUNNY   86  53  32 CALM      30.09R
$$

...MARINE OBSERVATIONS...

STATION/POSITION TIME  SKY/WX   TEMP    WIND        PRES    VSBY  WAVE   SWELL
                                AIR SEA DIR/SP/G                  HT/PER HT/PER
                 (UTC)          (F)     (DEG/KT/KT) (MB)    (MI)  (FT/S) (FT/S)
PORT ARANSAS     1600            84 86  160/  8/ 10 1014.7R
BUOY 90 E PORT A 1550            86 86  160/ 17/ 21 1014.7          6/ 6
BUOY 45 SE BAFFI 1550            86     170/ 19/ 21 1013.4          6/ 7
BUOY 200 E PT IS 1650            87 88  150/ 17/ 19 1015.8R         5/ 6
BUOY 15 E GALVES 1550            87 87  200/ 14/ 17 1015.7          5/ 6   2/ 7
$$




USA.gov is the U.S. government's official web portal to all federal, state and local government web resources and services.